When you browse on this site, cookies collect data to enhance your experience and personalize the content and advertising you see.
Visit our Privacy Policy to learn more. By continuing to use the site, you agree to this use of cookies and data.
  • In Hungary
  • List of Countries
  • For 7 days
  • Water Temperature
  • Weather Map
  • News
  • Weather Widgets
  • user-avatar
    Login

    Hourly Weather Klugajny

    Today, 22 September, Sunday

    Time Temperature Precipitation Wind Pressure Humidity
    00:00 +10°C° 0 mm 2 mps 755 mmHg 96%
    01:00 +9°C° 0 mm 2 mps 755 mmHg 96%
    02:00 +9°C° 0 mm 2 mps 755 mmHg 96%
    03:00 +9°C° 0 mm 2 mps 755 mmHg 96%
    04:00 +8°C° 0 mm 2 mps 754 mmHg 97%
    05:00 +9°C° 0 mm 3 mps 754 mmHg 94%
    06:00 +10°C° 0 mm 3 mps 754 mmHg 92%
    07:00 +10°C° 0 mm 4 mps 755 mmHg 89%
    08:00 +12°C° 0 mm 3 mps 754 mmHg 82%
    09:00 +14°C° 0 mm 3 mps 754 mmHg 75%
    10:00 +17°C° 0 mm 3 mps 754 mmHg 68%
    11:00 +18°C° 0 mm 3 mps 754 mmHg 63%
    12:00 +19°C° 0 mm 3 mps 753 mmHg 59%
    13:00 +20°C° 0 mm 3 mps 753 mmHg 56%
    14:00 +19°C° 0 mm 3 mps 753 mmHg 59%
    15:00 +19°C° 0 mm 3 mps 752 mmHg 62%
    16:00 +18°C° 0 mm 3 mps 752 mmHg 65%
    17:00 +16°C° 0 mm 2 mps 752 mmHg 74%
    18:00 +14°C° 0 mm 2 mps 753 mmHg 84%
    19:00 +12°C° 0 mm 2 mps 753 mmHg 93%
    20:00 +12°C° 0 mm 2 mps 753 mmHg 94%
    21:00 +12°C° 0 mm 2 mps 754 mmHg 95%
    22:00 +10°C° 0 mm 3 mps 754 mmHg 96%
    23:00 +10°C° 0 mm 3 mps 754 mmHg 92%

    Tomorrow, 23 September, Monday

    Time Temperature Precipitation Wind Pressure Humidity
    00:00 +10°C° 0 mm 4 mps 755 mmHg 88%
    01:00 +10°C° 0 mm 4 mps 755 mmHg 84%
    02:00 +8°C° 0 mm 4 mps 755 mmHg 83%
    03:00 +7°C° 0 mm 4 mps 755 mmHg 83%
    04:00 +7°C° 0 mm 4 mps 755 mmHg 83%
    05:00 +7°C° 0 mm 4 mps 756 mmHg 81%
    06:00 +7°C° 0 mm 5 mps 756 mmHg 79%
    07:00 +7°C° 0 mm 5 mps 756 mmHg 78%
    08:00 +8°C° 0 mm 5 mps 756 mmHg 73%
    09:00 +9°C° 0 mm 5 mps 757 mmHg 68%
    10:00 +10°C° 0 mm 5 mps 757 mmHg 62%
    11:00 +12°C° 0 mm 5 mps 757 mmHg 59%
    12:00 +13°C° 0 mm 5 mps 756 mmHg 56%
    13:00 +13°C° 0 mm 5 mps 756 mmHg 54%
    14:00 +13°C° 0 mm 4 mps 756 mmHg 53%
    15:00 +13°C° 0 mm 4 mps 756 mmHg 53%
    16:00 +13°C° 0 mm 4 mps 756 mmHg 53%
    17:00 +11°C° 0 mm 4 mps 756 mmHg 57%
    18:00 +10°C° 0 mm 3 mps 756 mmHg 60%
    19:00 +8°C° 0 mm 3 mps 756 mmHg 63%
    20:00 +8°C° 0 mm 3 mps 756 mmHg 64%
    21:00 +7°C° 0 mm 3 mps 756 mmHg 64%
    22:00 +7°C° 0 mm 3 mps 756 mmHg 65%
    23:00 +5°C° 0 mm 3 mps 756 mmHg 67%

    Day after tomorrow, 24 September, Tuesday

    Time Temperature Precipitation Wind Pressure Humidity
    00:00 +5°C° 0 mm 3 mps 756 mmHg 69%
    01:00 +5°C° 0 mm 3 mps 756 mmHg 71%
    02:00 +4°C° 0 mm 3 mps 756 mmHg 73%
    03:00 +4°C° 0 mm 3 mps 755 mmHg 75%
    04:00 +4°C° 0 mm 3 mps 755 mmHg 78%
    05:00 +4°C° 0 mm 3 mps 755 mmHg 76%
    06:00 +5°C° 0 mm 3 mps 755 mmHg 74%
    07:00 +7°C° 0 mm 3 mps 755 mmHg 73%
    08:00 +9°C° 0 mm 3 mps 754 mmHg 68%
    09:00 +11°C° 0 mm 3 mps 754 mmHg 64%
    10:00 +13°C° 0 mm 3 mps 754 mmHg 59%
    11:00 +14°C° 0 mm 3 mps 754 mmHg 56%
    12:00 +16°C° 0 mm 3 mps 754 mmHg 53%
    13:00 +17°C° 0 mm 3 mps 753 mmHg 49%
    14:00 +17°C° 0 mm 2 mps 753 mmHg 52%
    15:00 +17°C° 0 mm 2 mps 752 mmHg 54%
    16:00 +17°C° 0 mm 2 mps 752 mmHg 56%
    17:00 +15°C° 0 mm 2 mps 752 mmHg 62%
    18:00 +12°C° 0 mm 3 mps 752 mmHg 67%
    19:00 +10°C° 0 mm 3 mps 752 mmHg 73%
    20:00 +10°C° 0 mm 3 mps 752 mmHg 74%
    21:00 +9°C° 0 mm 3 mps 751 mmHg 75%
    22:00 +9°C° 0 mm 3 mps 751 mmHg 76%
    23:00 +9°C° 0 mm 3 mps 751 mmHg 76%

    25 September, Wednesday

    Time Temperature Precipitation Wind Pressure Humidity
    00:00 +9°C° 0 mm 3 mps 751 mmHg 75%
    01:00 +9°C° 0 mm 3 mps 751 mmHg 75%
    02:00 +9°C° 0 mm 3 mps 750 mmHg 75%
    03:00 +9°C° 0 mm 3 mps 750 mmHg 74%
    04:00 +10°C° 0 mm 3 mps 750 mmHg 74%
    05:00 +10°C° 0 mm 4 mps 749 mmHg 75%
    06:00 +10°C° 0 mm 4 mps 749 mmHg 75%
    07:00 +11°C° 0 mm 4 mps 749 mmHg 75%
    08:00 +12°C° 0 mm 4 mps 749 mmHg 72%
    09:00 +13°C° 0 mm 4 mps 749 mmHg 68%
    10:00 +15°C° 0 mm 4 mps 749 mmHg 64%
    11:00 +15°C° 0 mm 4 mps 749 mmHg 63%
    12:00 +17°C° 0 mm 4 mps 748 mmHg 61%
    13:00 +17°C° 0 mm 4 mps 748 mmHg 60%
    14:00 +16°C° 0.1 mm 3 mps 748 mmHg 66%
    15:00 +14°C° 0.1 mm 3 mps 747 mmHg 73%
    16:00 +14°C° 0.1 mm 2 mps 747 mmHg 79%
    17:00 +14°C° 0.1 mm 2 mps 747 mmHg 81%
    18:00 +13°C° 0.1 mm 3 mps 747 mmHg 82%
    19:00 +12°C° 0.1 mm 3 mps 747 mmHg 83%
    20:00 +12°C° 0.1 mm 3 mps 747 mmHg 84%
    21:00 +13°C° 0.1 mm 2 mps 747 mmHg 86%
    22:00 +13°C° 0.1 mm 2 mps 747 mmHg 87%
    23:00 +13°C° 0.1 mm 2 mps 747 mmHg 88%

    26 September, Thursday

    Time Temperature Precipitation Wind Pressure Humidity
    00:00 +13°C° 0.1 mm 2 mps 747 mmHg 89%
    01:00 +13°C° 0.1 mm 2 mps 747 mmHg 89%
    02:00 +12°C° 0.2 mm 2 mps 748 mmHg 90%
    03:00 +12°C° 0.2 mm 2 mps 748 mmHg 91%
    04:00 +12°C° 0.2 mm 2 mps 748 mmHg 93%
    05:00 +12°C° 0.1 mm 2 mps 748 mmHg 92%
    06:00 +12°C° 0.1 mm 1 mps 748 mmHg 91%
    07:00 +13°C° 0.1 mm 1 mps 748 mmHg 91%
    08:00 +14°C° 0 mm 1 mps 749 mmHg 86%
    09:00 +15°C° 0 mm 1 mps 749 mmHg 81%
    10:00 +18°C° 0 mm 1 mps 750 mmHg 77%
    11:00 +18°C° 0.2 mm 1 mps 750 mmHg 75%
    12:00 +19°C° 0.2 mm 1 mps 750 mmHg 73%
    13:00 +19°C° 0.2 mm 1 mps 750 mmHg 71%
    14:00 +18°C° 0.5 mm 2 mps 750 mmHg 73%
    15:00 +18°C° 0.5 mm 2 mps 750 mmHg 75%
    16:00 +17°C° 0.5 mm 2 mps 750 mmHg 77%
    17:00 +16°C° 0.3 mm 2 mps 751 mmHg 82%
    18:00 +15°C° 0.3 mm 2 mps 751 mmHg 87%
    19:00 +14°C° 0.3 mm 2 mps 751 mmHg 91%
    20:00 +14°C° 0 mm 2 mps 751 mmHg 92%
    21:00 +13°C° 0 mm 2 mps 752 mmHg 93%
    22:00 +13°C° 0 mm 2 mps 752 mmHg 93%
    23:00 +13°C° 0 mm 2 mps 752 mmHg 94%

    27 September, Friday

    Time Temperature Precipitation Wind Pressure Humidity
    00:00 +13°C° 0 mm 2 mps 752 mmHg 94%
    01:00 +13°C° 0 mm 2 mps 752 mmHg 94%
    02:00 +13°C° 0 mm 1 mps 752 mmHg 94%
    03:00 +13°C° 0 mm 1 mps 752 mmHg 94%
    04:00 +12°C° 0 mm 1 mps 752 mmHg 94%
    05:00 +13°C° 0 mm 2 mps 752 mmHg 93%
    06:00 +13°C° 0 mm 2 mps 752 mmHg 92%
    07:00 +13°C° 0 mm 2 mps 752 mmHg 90%
    08:00 +15°C° 0 mm 2 mps 752 mmHg 84%
    09:00 +16°C° 0 mm 2 mps 753 mmHg 77%
    10:00 +18°C° 0 mm 3 mps 753 mmHg 71%
    11:00 +19°C° 0 mm 3 mps 752 mmHg 68%
    12:00 +19°C° 0 mm 3 mps 752 mmHg 65%
    13:00 +20°C° 0 mm 3 mps 752 mmHg 62%
    14:00 +20°C° 0.1 mm 3 mps 752 mmHg 65%
    15:00 +19°C° 0.1 mm 3 mps 751 mmHg 69%
    16:00 +19°C° 0.1 mm 3 mps 751 mmHg 72%
    17:00 +18°C° 0.1 mm 3 mps 751 mmHg 77%
    18:00 +17°C° 0.1 mm 3 mps 751 mmHg 82%
    19:00 +16°C° 0.1 mm 3 mps 751 mmHg 86%
    20:00 +16°C° 0 mm 3 mps 751 mmHg 86%
    21:00 +16°C° 0 mm 3 mps 751 mmHg 86%
    22:00 +15°C° 0 mm 4 mps 751 mmHg 86%
    23:00 +15°C° 0 mm 4 mps 750 mmHg 85%
    Show more